FENGYUN 1C DEB, 32212

Orbit data source: Space-Track

FENGYUN 1C DEB, 32212 is space debris in SSO originally from a launch on Mon, 10 May 1999 UTC launched from the Taiyaun Space Center, China (TSC). Fengyun 1C debris stems from the Chinese weather satellite Fengyun-1C, which was intentionally destroyed by a Chinese anti-satellite missile in 2007. This event dramatically increased the amount of space debris, with thousands of trackable fragments posing hazards to satellites and human spaceflight. The Fengyun 1C debris cloud has become a focal point in discussions about space sustainability and the need for international regulations to prevent the creation of new debris.

Loading next visibility...
Identifier
32212, 1999-025CVJ
Orbit
SSO
Country
Flag of CNCN / PRC
Related business
Manufacturer
Unknown
Mission
Spacecraft
Bus & Motor
Unknown
Mass
Unknown
Launch date (UTC)
1999-05-10 (26 years ago)
Launch vehicle
Unknown
Launch site
Taiyaun Space Center, China (TSC)
Object type
Payload
Rocket body
Debris
Shape & HBR
Unknown shape, 0.1 m
Radar Cross Section
Small (<0.1 m²)

Expand to show TLE details & history
Last TLE update: 6 days ago

TLE from 6 days ago
0 FENGYUN 1C DEB
1 32212U 99025CVJ 25297.52264895  .00002884  00000-0  83504-3 0  9996
2 32212  99.5740  28.4269 0137830 220.7237 154.4259 14.40018857953535
Epoch: 2025-10-24T12:32Z
TLE epoch observation values (Epoch: 2025-10-24T12:32:36.869Z)
Latitude
15.5738°
Longitude
164.42663°
Altitude
849.654 km
Speed
7.383 km/s
True Right ascension
01h 42m 59s
True Declination
15° 29' 10"
Sunlit
Object was in full shadow at epoch
Visualization orbit readout
Latitude
Unknown
Longitude
Unknown
Altitude
Unknown
Speed
Unknown
Apparent Right ascension
Unknown
Apparent Declination
Unknown
Sunlit
N/A
Visualization observer readout
Local Sidereal Time
23:17:58
Azimuth
Unknown
Elevation
Unknown
Doppler factor
Unknown
Orbital elements
Apogee altitude
853.935 km
Perigee altitude
657.287 km
Semi-major axis
7,133.748 km
Eccentricity
0.01378
Inclination
99.574°
RAAN
28.4269°
Arg. of periapsis
220.7237°
True anomaly
155.09724°
Mean anomaly
154.4259°
Eccentric anomaly
154.76261°
Mean motion
3.60219 °/min
Orbital period
99.94 mins
BSTAR
0.00083504
Loading maneuver chart data...
Computing Atmospheric mass density...

Documentation

Showing up to 5 results
|